This is the latest recevied weather packets stored in our database for station/object N7BTW-13. If no packets are shown the sender has not sent any weather packets the latest 10 day(s).
| Time | Temp. | Humidity | Pressure | Rain* | Wind** | Luminosity | Snow |
|---|---|---|---|---|---|---|---|
| 1787860807 | 26.11° C | 51% | - | 0 mm | - | - | - |
| 1787860207 | 24.44° C | 54% | - | 0 mm | - | - | - |
| 1787859607 | 23.89° C | 56% | - | 0 mm | - | - | - |
| 1787859009 | 25° C | 54% | - | 0 mm | - | - | - |
| 1787858407 | 25° C | 53% | - | 0 mm | - | - | - |
| 1787857809 | 25° C | 54% | - | 0 mm | - | - | - |
| 1787857210 | 22.78° C | 58% | - | 0 mm | - | - | - |
| 1787856606 | 25° C | 54% | - | 0 mm | - | - | - |
| 1787856007 | 24.44° C | 55% | - | 0 mm | - | - | - |
| 1787855407 | 24.44° C | 56% | - | 0 mm | - | - | - |
| 1787854809 | 23.89° C | 56% | - | 0 mm | - | - | - |
| 1787854206 | 23.89° C | 56% | - | 0 mm | - | - | - |
| 1787853607 | 23.89° C | 58% | - | 0 mm | - | - | - |
| 1787853008 | 22.22° C | 61% | - | 0 mm | - | - | - |
| 1787852413 | 22.78° C | 61% | - | 0 mm | - | - | - |
| 1787851808 | 22.22° C | 61% | - | 0 mm | - | - | - |
| 1787851210 | 22.22° C | 63% | - | 0 mm | - | - | - |
| 1787850611 | 21.67° C | 65% | - | 0 mm | - | - | - |
| 1787850008 | 20.56° C | 69% | - | 0 mm | - | - | - |
| 1787849406 | 19.44° C | 73% | - | 0 mm | - | - | - |
| 1787848806 | 19.44° C | 75% | - | 0 mm | - | - | - |
| 1787848207 | 18.33° C | 80% | - | 0 mm | - | - | - |
| 1787847607 | 17.78° C | 82% | - | 0 mm | - | - | - |
| 1787847008 | 17.22° C | 82% | - | 0 mm | - | - | - |
| 1787846408 | 17.78° C | 82% | - | 0 mm | - | - | - |
* Rain latest hour (hover to see other rain measurements)
** Current wind speed in m/s (hover to see current wind gust speed)